[[{"header":{"parameterUnit":"m.s-1","parameterCategory":2,"la1":30.2991,"la2":30.254,"lo1":-89.0895,"lo2":-89.0444,"dy":0.0017,"dx":0.0017,"nx":28,"ny":28,"refTime":"2024-07-01T21:00:00:Z","depth":"0","parameterNumber":2,"parameterNumberName":"U-component_of_CURRENTS"},"data":[0,0,0,0,0,0,0,0,0,0,0,0,0,0,0,0,0,0,0,0,0,0,0,0,0,0,0,0,0,0,0,0,0,0,0,0,0,0,0,0,0,0,0,0,0,0,0,0,0,0,0,0,0,0,0,0,0,0,-0.3395,-0.3394,0,-0.3289,-0.3287,-0.3286,-0.3195,-0.3194,-0.3194,-0.3193,-0.3112,-0.3111,-0.3109,0,0,0,0,0,0,0,0,0,0,0,0,0,-0.3283,-0.3286,-0.3395,-0.3394,-0.3393,-0.3289,-0.3287,-0.3285,-0.3195,-0.3194,-0.3193,-0.3193,-0.3113,-0.3111,-0.3109,0,0,0,0,0,0,0,0,0,0,0,0,0,-0.3266,-0.3288,-0.3395,-0.3339,-0.3333,-0.3289,-0.3287,-0.3285,-0.3195,-0.3194,-0.3193,-0.3192,-0.3114,-0.3111,-0.3109,-0.3113,0,0,-0.3102,-0.3101,0,0,0,0,0,0,0,0,-0.3268,-0.327,-0.3348,-0.3342,-0.3336,-0.3258,-0.3218,-0.323,-0.3195,-0.3243,-0.3193,-0.3192,-0.3167,-0.316,-0.3136,-0.3109,-0.3106,-0.3102,-0.31,-0.3099,-0.3099,0,0,0,0,0,0,0,-0.3269,-0.3273,-0.3349,-0.3347,-0.334,-0.3237,-0.3236,-0.3218,-0.3209,-0.3239,-0.3233,-0.3228,-0.3163,-0.3138,-0.3133,-0.3105,-0.3102,-0.31,-0.3098,-0.3097,-0.3004,-0.3003,0,0,0,0,0,0,-0.3305,-0.3276,-0.3352,-0.3346,-0.3303,-0.3242,-0.3239,-0.328,-0.3208,-0.3197,-0.3229,-0.3224,-0.3143,-0.3136,-0.313,-0.3049,-0.3099,-0.3097,-0.3096,-0.3005,-0.3004,-0.3003,0,0,0,0,0,0,-0.3304,-0.3315,-0.3356,-0.3308,-0.3307,-0.3247,-0.3292,-0.3279,-0.3253,-0.3201,-0.319,-0.3217,-0.3142,-0.3134,-0.3113,-0.3049,-0.3096,-0.3094,-0.3007,-0.3005,-0.3004,-0.2941,0,0,0,0,0,0,-0.3302,-0.3316,-0.3343,-0.3313,-0.3311,-0.3326,-0.3293,-0.3278,-0.3254,-0.3246,-0.3188,-0.3179,-0.314,-0.3117,-0.3111,-0.3047,-0.3092,-0.3008,-0.3006,-0.3004,-0.2944,-0.2937,-0.2931,0,0,0,0,0,-0.3299,-0.3332,-0.3346,-0.3354,-0.3357,-0.3326,-0.3315,-0.3263,-0.3254,-0.3238,-0.3206,-0.318,-0.3098,-0.3115,-0.3108,-0.3041,-0.3009,-0.3006,-0.3004,-0.2947,-0.2939,-0.2931,0,0,0,0,0,0,-0.3304,-0.3326,-0.334,-0.3383,-0.3361,-0.3312,-0.329,-0.3273,-0.3234,-0.3231,-0.3187,-0.3176,-0.3112,-0.3113,-0.3132,-0.3011,-0.3041,-0.3038,-0.3,-0.2992,-0.2986,-0.2965,-0.309,0,0,0,0,0,-0.3325,-0.3351,-0.3353,-0.3385,-0.338,-0.3344,-0.3323,-0.3299,-0.3267,-0.3247,-0.3212,-0.3168,-0.3097,-0.308,-0.3028,-0.2997,-0.2984,-0.2945,-0.2939,-0.2933,-0.2913,-0.2862,-0.2849,-0.2995,-0.2995,-0.2995,0,0,-0.3333,-0.3351,-0.3364,-0.3385,-0.3364,-0.3334,-0.3327,-0.3305,-0.3257,-0.3249,-0.3184,-0.3144,-0.3083,-0.301,-0.2983,-0.3006,-0.2888,-0.293,-0.2925,-0.2908,-0.2858,-0.2844,-0.2831,-0.2994,-0.2994,-0.2994,0,0,-0.3338,-0.3386,-0.3393,-0.3379,-0.3364,-0.3333,-0.3335,-0.3301,-0.326,-0.3221,-0.3166,-0.3102,-0.305,-0.2959,-0.2912,-0.2855,-0.2846,-0.2846,-0.2803,-0.2754,-0.2741,-0.273,-0.2707,-0.2693,-0.2855,-0.2854,-0.2854,0,-0.3332,-0.3344,-0.3383,-0.3375,-0.3324,-0.3336,-0.3284,-0.3262,-0.322,-0.317,-0.3197,-0.3054,-0.3002,-0.2865,-0.2825,-0.2829,-0.2829,-0.2833,-0.2744,-0.2732,-0.2721,-0.27,-0.2686,-0.2851,-0.2851,-0.2852,-0.2852,0,-0.3336,-0.3318,-0.3313,-0.3299,-0.3278,-0.3223,-0.3207,-0.3178,-0.3149,-0.3111,-0.3006,-0.2958,-0.2867,-0.283,-0.2802,-0.268,-0.2714,-0.2731,-0.276,-0.2702,-0.2685,-0.2671,-0.2846,-0.2848,-0.2849,-0.2849,0,0,-0.3298,-0.3303,-0.3284,-0.3232,-0.3202,-0.3172,-0.3118,-0.3026,-0.2988,-0.2956,-0.2874,-0.274,-0.2744,-0.2691,-0.2657,-0.2612,-0.2522,-0.2644,-0.2643,-0.2615,-0.2442,-0.2378,-0.2359,-0.2539,-0.2536,-0.2534,-0.2464,0,-0.3225,-0.3166,-0.3195,-0.3083,-0.3004,-0.3005,-0.296,-0.2914,-0.2883,-0.284,-0.277,-0.2707,-0.2686,-0.2662,-0.2597,-0.2544,-0.2483,-0.254,-0.2507,-0.2505,-0.245,-0.2338,-0.2223,-0.2143,-0.2451,-0.2449,-0.2447,0,-0.3122,-0.3094,-0.2977,-0.2907,-0.2887,-0.2844,-0.2744,-0.2719,-0.2686,-0.2682,-0.2628,-0.2645,-0.2537,-0.2571,-0.2433,-0.2485,-0.2437,-0.2414,-0.2412,-0.2359,-0.2415,-0.2248,-0.2107,-0.2093,-0.2427,-0.2429,-0.243,0,-0.292,-0.2885,-0.2766,-0.2739,-0.2723,-0.2658,-0.2637,-0.262,-0.2546,-0.2582,-0.254,-0.253,-0.2458,-0.2436,-0.2385,-0.2417,-0.2275,-0.2318,-0.221,-0.2208,-0.21,-0.2091,-0.1926,-0.22,-0.22,-0.22,-0.22,0,-0.2696,-0.2577,-0.2668,-0.2579,-0.2451,-0.2527,-0.2386,-0.2403,-0.2392,-0.2258,-0.2425,-0.2297,-0.2417,-0.2368,-0.2368,-0.2232,-0.2249,-0.2158,-0.2159,-0.2077,-0.2068,-0.2046,-0.2091,-0.2198,-0.2198,-0.2199,-0.2199,0,-0.2326,-0.2419,-0.2265,-0.23,-0.2308,-0.2186,-0.2137,-0.2083,-0.2136,-0.1967,-0.1969,-0.2058,-0.2034,-0.2163,-0.214,-0.2136,-0.2048,-0.2041,-0.1959,-0.1949,-0.1838,-0.1885,-0.1749,-0.1704,-0.191,-0.1907,-0.1905,0,-0.2062,-0.1974,-0.2,-0.1962,-0.1928,-0.1831,-0.1791,-0.1871,-0.1792,-0.1728,-0.161,-0.1653,-0.1538,-0.159,-0.1743,-0.1815,-0.187,-0.1755,-0.1759,-0.1764,-0.1819,-0.188,-0.1857,-0.1608,-0.1604,-0.16,-0.1598,0,-0.1544,-0.1607,-0.1552,-0.1509,-0.1463,-0.1403,-0.1333,-0.1253,-0.132,-0.1217,-0.1043,-0.0976,-0.1056,-0.1121,-0.1366,-0.141,-0.1715,-0.1679,-0.1683,-0.1539,-0.1592,-0.1573,-0.1766,-0.1566,-0.1569,-0.1572,-0.1573,-0.1575,-0.1148,-0.1036,-0.1085,-0.1018,-0.1008,-0.0985,-0.0862,-0.0866,-0.0737,-0.0589,-0.0554,-0.038,-0.0556,-0.0863,-0.0995,-0.1278,-0.1365,-0.1322,-0.1374,-0.1432,-0.1375,-0.1504,-0.1311,-0.1313,-0.1314,-0.1315,-0.1317,0,-0.07,-0.0702,-0.0612,-0.0585,-0.05,-0.0632,-0.0581,-0.0486,-0.0321,-0.0217,-0.0041,0.0077,-0.0139,-0.0454,-0.0917,-0.1007,-0.1041,-0.1075,-0.1125,-0.1113,-0.1195,-0.1167,-0.0933,-0.0933,-0.0933,-0.0933,-0.0933,-0.0933,-0.0481,-0.0348,-0.038,-0.0161,-0.0141,-0.0037,-0.0015,0.0048,0.0127,0.0342,0.0476,0.0554,0.0221,-0.0465,-0.0892,-0.0938,-0.0967,-0.0944,-0.1015,-0.108,-0.1108,-0.1135,-0.1114,-0.0873,-0.0873,-0.0865,-0.0865,-0.0865]},{"header":{"parameterUnit":"m.s-1","parameterCategory":2,"la1":30.2991,"la2":30.254,"lo1":-89.0895,"lo2":-89.0444,"dy":0.0017,"dx":0.0017,"nx":28,"ny":28,"refTime":"2024-07-01T21:00:00:Z","depth":"0","parameterNumber":3,"parameterNumberName":"V-component_of_CURRENTS"},"data":[0,0,0,0,0,0,0,0,0,0,0,0,0,0,0,0,0,0,0,0,0,0,0,0,0,0,0,0,0,0,0,0,0,0,0,0,0,0,0,0,0,0,0,0,0,0,0,0,0,0,0,0,0,0,0,0,0,0,-0.05,-0.0499,0,-0.0421,-0.042,-0.0419,-0.0319,-0.0318,-0.0317,-0.0315,-0.0013,-0.0006,0.0001,0,0,0,0,0,0,0,0,0,0,0,0,0,-0.0433,-0.0435,-0.05,-0.0499,-0.0499,-0.0422,-0.042,-0.0419,-0.0319,-0.0318,-0.0316,-0.0315,-0.0015,-0.0007,0.0001,0,0,0,0,0,0,0,0,0,0,0,0,0,-0.0416,-0.0436,-0.05,-0.0442,-0.0437,-0.0422,-0.042,-0.0418,-0.032,-0.0318,-0.0316,-0.0314,-0.0018,-0.0008,0.0002,0.0027,0,0,0.0034,0.0038,0,0,0,0,0,0,0,0,-0.0417,-0.0418,-0.0451,-0.0446,-0.044,-0.0381,-0.0286,-0.0259,-0.032,-0.036,-0.0315,-0.0313,-0.0119,-0.01,-0.0088,0.0041,0.0054,0.0035,0.0041,0.0045,0.0048,0,0,0,0,0,0,0,-0.0419,-0.042,-0.0465,-0.0451,-0.0444,-0.0376,-0.0372,-0.028,-0.0245,-0.0357,-0.035,-0.0348,-0.0113,-0.0099,-0.008,0.0059,0.0034,0.0043,0.005,0.0054,0.046,0.0464,0,0,0,0,0,0,-0.0445,-0.0423,-0.0468,-0.0463,-0.0427,-0.0379,-0.0375,-0.0399,-0.025,-0.0229,-0.0349,-0.0343,-0.0117,-0.0092,-0.0068,0.0113,0.0045,0.0055,0.0061,0.0455,0.0461,0.0466,0,0,0,0,0,0,-0.0444,-0.0451,-0.0471,-0.0441,-0.044,-0.0384,-0.0411,-0.0399,-0.0381,-0.0248,-0.022,-0.0345,-0.0114,-0.0083,0.0041,0.0121,0.0059,0.0069,0.045,0.0457,0.0464,0.0385,0,0,0,0,0,0,-0.0443,-0.0452,-0.0471,-0.0445,-0.0443,-0.0464,-0.0413,-0.0399,-0.0385,-0.0376,-0.0235,-0.0205,-0.0111,0.0025,0.0051,0.0134,0.0077,0.0444,0.0453,0.0461,0.0382,0.0389,0.0394,0,0,0,0,0,-0.0442,-0.0501,-0.0473,-0.0478,-0.0475,-0.0465,-0.0457,-0.0406,-0.0387,-0.0383,-0.0268,-0.021,0.0102,0.0034,0.0065,0.0152,0.044,0.0451,0.0461,0.0379,0.0387,0.0394,0,0,0,0,0,0,-0.0492,-0.0496,-0.0465,-0.0523,-0.0488,-0.0449,-0.0455,-0.0421,-0.0338,-0.0323,-0.0191,-0.0153,-0.0009,0.0085,0.0008,0.0307,0.0297,0.0314,0.0226,0.0234,0.024,0.0211,0.0085,0,0,0,0,0,-0.0511,-0.0551,-0.052,-0.0561,-0.0553,-0.0503,-0.0493,-0.0461,-0.0391,-0.0356,-0.0257,-0.0106,0.0056,0.0147,0.0268,0.0405,0.0427,0.0503,0.0509,0.0513,0.0518,0.0617,0.063,0.05,0.05,0.05,0,0,-0.0545,-0.0549,-0.0572,-0.0571,-0.0545,-0.0501,-0.0492,-0.0494,-0.042,-0.0332,-0.0218,-0.0115,0.0089,0.0253,0.0333,0.0345,0.0551,0.0526,0.0527,0.0531,0.0629,0.0641,0.0651,0.0507,0.0506,0.0505,0,0,-0.0605,-0.0632,-0.0656,-0.0621,-0.059,-0.0543,-0.0546,-0.0505,-0.0451,-0.0342,-0.0228,-0.0087,0.012,0.0292,0.0417,0.0535,0.0554,0.0593,0.0625,0.072,0.0729,0.0738,0.0702,0.0708,0.0626,0.0625,0.0625,0,-0.0635,-0.0642,-0.0658,-0.0636,-0.0599,-0.0555,-0.0522,-0.0453,-0.0367,-0.0312,-0.0302,0.0018,0.0163,0.0425,0.0487,0.0548,0.0544,0.0562,0.0718,0.0728,0.0738,0.07,0.0707,0.0623,0.0623,0.0623,0.0624,0,-0.0672,-0.0651,-0.0668,-0.0601,-0.0576,-0.0555,-0.0461,-0.0418,-0.0354,-0.027,-0.0089,0.0086,0.0281,0.0381,0.0482,0.0669,0.0615,0.0673,0.0667,0.0744,0.0701,0.071,0.0619,0.062,0.0621,0.0622,0,0,-0.0779,-0.0705,-0.0697,-0.0618,-0.0552,-0.0517,-0.0428,-0.0312,-0.0243,-0.0123,-0.0027,0.0283,0.0311,0.0456,0.0587,0.0709,0.0761,0.0718,0.0724,0.0623,0.0856,0.0855,0.0863,0.0823,0.0826,0.0829,0.0763,0,-0.077,-0.0698,-0.0686,-0.0566,-0.0493,-0.0441,-0.0354,-0.0252,-0.0173,-0.0083,0.0115,0.0269,0.0371,0.045,0.0581,0.0714,0.0795,0.0766,0.0851,0.0851,0.0796,0.0882,0.0976,0.0933,0.0772,0.0774,0.0775,0,-0.0764,-0.0703,-0.0611,-0.048,-0.046,-0.0398,-0.0281,-0.0203,-0.0075,-0.0029,0.0108,0.0208,0.0422,0.0474,0.0712,0.067,0.0757,0.0849,0.0849,0.0891,0.0874,0.0858,0.0955,0.1056,0.0789,0.0788,0.0787,0,-0.0727,-0.0629,-0.0542,-0.0495,-0.0371,-0.0336,-0.028,-0.0182,-0.011,-0.0008,0.0043,0.0225,0.0363,0.049,0.0673,0.0683,0.0861,0.09,0.097,0.0963,0.109,0.1092,0.1262,0.106,0.1061,0.1061,0.1061,0,-0.0667,-0.0578,-0.051,-0.0437,-0.0358,-0.0302,-0.0232,-0.0176,-0.0099,-0.0007,0.0081,0.0213,0.0389,0.0512,0.0616,0.0797,0.0817,0.0975,0.0986,0.106,0.106,0.1193,0.1226,0.1058,0.1059,0.1059,0.106,0,-0.0587,-0.0544,-0.0432,-0.034,-0.0322,-0.0264,-0.0207,-0.0161,-0.0084,0.0015,0.0059,0.0234,0.0388,0.0496,0.0696,0.0781,0.099,0.0972,0.0971,0.0988,0.1147,0.1172,0.132,0.1412,0.1013,0.1014,0.1014,0,-0.0507,-0.0443,-0.0383,-0.036,-0.0319,-0.0252,-0.0232,-0.0164,-0.0121,0.007,0.0127,0.0306,0.0481,0.0684,0.0785,0.0872,0.103,0.1052,0.1156,0.1181,0.1218,0.1221,0.1289,0.1241,0.1243,0.1244,0.1246,0,-0.0351,-0.0371,-0.0317,-0.03,-0.0277,-0.0241,-0.0194,-0.0155,-0.0066,0.0033,0.0218,0.0384,0.0607,0.0825,0.0939,0.1012,0.115,0.1089,0.1186,0.1477,0.1431,0.1514,0.1143,0.1261,0.1259,0.1258,0.1257,0.1257,-0.025,-0.0251,-0.0238,-0.0227,-0.0208,-0.0194,-0.0159,-0.0114,-0.0026,0.0159,0.0269,0.0517,0.0895,0.1095,0.1111,0.1283,0.1261,0.1441,0.1469,0.1466,0.16,0.1187,0.1293,0.1292,0.1291,0.129,0.1289,0,-0.0082,-0.0146,-0.0155,-0.0138,-0.01,-0.0128,-0.0098,-0.0056,0.0047,0.0182,0.0361,0.076,0.1116,0.1348,0.1617,0.1698,0.1711,0.1763,0.1843,0.1901,0.1615,0.1676,0.1789,0.1789,0.1789,0.1789,0.1789,0.1789,-0.0001,-0.0006,-0.0081,-0.002,-0.0009,0.0053,0.0066,0.0106,0.0184,0.0405,0.0605,0.0797,0.1299,0.1751,0.202,0.2027,0.2167,0.2135,0.2169,0.2014,0.1987,0.1962,0.2032,0.2218,0.2218,0.2507,0.251,0.2512]}],[{"header":{"parameterUnit":"m.s-1","parameterCategory":2,"la1":30.2991,"la2":30.254,"lo1":-89.0895,"lo2":-89.0444,"dy":0.0017,"dx":0.0017,"nx":28,"ny":28,"refTime":"2024-07-01T21:00:00:Z","depth":"2","parameterNumber":2,"parameterNumberName":"U-component_of_CURRENTS"},"data":[0,0,0,0,0,0,0,0,0,0,0,0,0,0,0,0,0,0,0,0,0,0,0,0,0,0,0,0,0,0,0,0,0,0,0,0,0,0,0,0,0,0,0,0,0,0,0,0,0,0,0,0,0,0,0,0,0,0,-0.2528,-0.2529,0,-0.2669,-0.2671,-0.2672,-0.2693,-0.2692,-0.2691,-0.269,-0.2943,-0.2951,-0.2958,0,0,0,0,0,0,0,0,0,0,0,0,0,-0.231,-0.2313,-0.2527,-0.253,-0.2532,-0.2669,-0.2671,-0.2672,-0.2693,-0.2692,-0.2691,-0.269,-0.2941,-0.295,-0.2959,0,0,0,0,0,0,0,0,0,0,0,0,0,-0.2419,-0.2314,-0.2527,-0.2562,-0.2567,-0.2669,-0.2671,-0.2673,-0.2693,-0.2692,-0.269,-0.2689,-0.2938,-0.2949,-0.296,-0.3056,0,0,-0.2995,-0.3,0,0,0,0,0,0,0,0,-0.2412,-0.2426,-0.2555,-0.256,-0.2566,-0.2666,-0.2687,-0.2808,-0.2693,-0.264,-0.269,-0.2688,-0.2865,-0.2882,-0.2904,-0.3068,-0.3079,-0.2996,-0.3003,-0.3007,-0.3011,0,0,0,0,0,0,0,-0.2405,-0.242,-0.2579,-0.2557,-0.2564,-0.2583,-0.2596,-0.2709,-0.2757,-0.2645,-0.2648,-0.2671,-0.2868,-0.2892,-0.291,-0.3083,-0.2995,-0.3005,-0.3012,-0.3017,-0.3166,-0.3163,0,0,0,0,0,0,-0.2397,-0.2413,-0.2574,-0.2584,-0.2489,-0.2588,-0.2603,-0.2631,-0.2753,-0.2771,-0.2672,-0.2672,-0.2874,-0.2897,-0.2919,-0.2981,-0.3007,-0.3018,-0.3024,-0.3168,-0.3165,-0.3162,0,0,0,0,0,0,-0.2392,-0.241,-0.2569,-0.2505,-0.2527,-0.2594,-0.2625,-0.2635,-0.2675,-0.2774,-0.2792,-0.2704,-0.2874,-0.2903,-0.3064,-0.2993,-0.3023,-0.3033,-0.3172,-0.3167,-0.3163,-0.3143,0,0,0,0,0,0,-0.2385,-0.2407,-0.2429,-0.2505,-0.253,-0.2639,-0.2628,-0.2639,-0.2693,-0.2693,-0.2808,-0.2828,-0.2875,-0.3047,-0.3076,-0.3009,-0.3042,-0.3175,-0.317,-0.3165,-0.3147,-0.3138,-0.3131,0,0,0,0,0,-0.2377,-0.2408,-0.243,-0.245,-0.2557,-0.2642,-0.2657,-0.2696,-0.2695,-0.2723,-0.2823,-0.2825,-0.3025,-0.3061,-0.3093,-0.3027,-0.3178,-0.3171,-0.3165,-0.3151,-0.314,-0.3131,0,0,0,0,0,0,-0.2337,-0.2416,-0.2441,-0.2498,-0.2571,-0.2647,-0.2678,-0.2711,-0.2807,-0.2815,-0.2895,-0.2926,-0.2997,-0.3035,-0.3069,-0.3035,-0.3059,-0.306,-0.3036,-0.3027,-0.3019,-0.2971,-0.3052,0,0,0,0,0,-0.2338,-0.2361,-0.2463,-0.2502,-0.2546,-0.2617,-0.2658,-0.2693,-0.2784,-0.2821,-0.2911,-0.2963,-0.2991,-0.304,-0.3089,-0.3163,-0.3139,-0.3097,-0.3089,-0.3083,-0.3055,-0.3007,-0.2993,-0.3141,-0.3141,-0.3141,0,0,-0.2338,-0.2375,-0.2397,-0.2492,-0.2547,-0.2587,-0.2637,-0.2707,-0.2722,-0.2843,-0.292,-0.2978,-0.3006,-0.3045,-0.3069,-0.3081,-0.3024,-0.3075,-0.307,-0.3045,-0.2999,-0.2985,-0.2973,-0.3137,-0.3137,-0.3138,0,0,-0.2322,-0.2384,-0.2399,-0.245,-0.2538,-0.2583,-0.2608,-0.2718,-0.2753,-0.2872,-0.2888,-0.2936,-0.3052,-0.3022,-0.3021,-0.3005,-0.2987,-0.2975,-0.2916,-0.2871,-0.2859,-0.2848,-0.2794,-0.2779,-0.2968,-0.2968,-0.2968,0,-0.2302,-0.2345,-0.2422,-0.2442,-0.2474,-0.2574,-0.2602,-0.265,-0.2793,-0.2819,-0.2887,-0.2957,-0.3008,-0.2964,-0.2935,-0.2984,-0.2963,-0.2969,-0.2864,-0.2853,-0.2842,-0.2789,-0.2773,-0.2966,-0.2967,-0.2967,-0.2967,0,-0.231,-0.2333,-0.2349,-0.2388,-0.2438,-0.2484,-0.2565,-0.2622,-0.2695,-0.2739,-0.2785,-0.288,-0.2896,-0.2882,-0.2926,-0.2827,-0.2838,-0.287,-0.2901,-0.2827,-0.2775,-0.2758,-0.2964,-0.2965,-0.2965,-0.2965,0,0,-0.2258,-0.2337,-0.2329,-0.2341,-0.2415,-0.2457,-0.2479,-0.2535,-0.2544,-0.2657,-0.2658,-0.2694,-0.2742,-0.2735,-0.2765,-0.2735,-0.2655,-0.2772,-0.277,-0.2737,-0.2548,-0.2487,-0.2463,-0.2688,-0.2685,-0.2682,-0.2541,0,-0.2229,-0.2239,-0.2292,-0.2295,-0.2319,-0.2391,-0.2407,-0.2456,-0.2527,-0.2563,-0.2594,-0.2628,-0.2676,-0.2704,-0.2667,-0.2674,-0.261,-0.2689,-0.2605,-0.2601,-0.2573,-0.2441,-0.2285,-0.214,-0.2525,-0.2522,-0.252,0,-0.2197,-0.2212,-0.2215,-0.2253,-0.2276,-0.2284,-0.2323,-0.2359,-0.2395,-0.2459,-0.2472,-0.2527,-0.2484,-0.2558,-0.248,-0.2538,-0.2511,-0.2517,-0.2513,-0.2445,-0.2508,-0.2273,-0.2096,-0.2492,-0.2495,-0.2497,-0.2499,0,-0.2103,-0.214,-0.2135,-0.2147,-0.2218,-0.2222,-0.226,-0.2311,-0.2355,-0.2377,-0.2428,-0.2394,-0.2419,-0.2368,-0.2383,-0.2428,-0.2306,-0.2368,-0.2268,-0.2265,-0.2103,-0.2089,-0.2259,-0.226,-0.226,-0.226,-0.2261,0,-0.2025,-0.2013,-0.209,-0.2084,-0.2094,-0.216,-0.2173,-0.2221,-0.2277,-0.2327,-0.2362,-0.2411,-0.2383,-0.2344,-0.2319,-0.2226,-0.2238,-0.2203,-0.2203,-0.2089,-0.2077,-0.2371,-0.2386,-0.2255,-0.2256,-0.2257,-0.2258,0,-0.19,-0.1947,-0.1953,-0.2024,-0.2046,-0.2047,-0.2136,-0.2153,-0.2235,-0.2296,-0.2311,-0.2384,-0.2328,-0.2264,-0.2186,-0.2158,-0.2074,-0.2033,-0.1896,-0.188,-0.2076,-0.2091,-0.1881,-0.1877,-0.1874,-0.1871,-0.1869,0,-0.1834,-0.1826,-0.1896,-0.1905,-0.1932,-0.1962,-0.1992,-0.21,-0.2136,-0.2314,-0.2329,-0.2324,-0.2315,-0.2142,-0.1998,-0.1826,-0.1944,-0.1655,-0.1696,-0.2004,-0.2026,-0.2047,-0.2066,-0.147,-0.1465,-0.1461,-0.1457,0,-0.1722,-0.1751,-0.1767,-0.1787,-0.1812,-0.1847,-0.1902,-0.1932,-0.2089,-0.2152,-0.227,-0.2292,-0.2168,-0.1928,-0.17,-0.1612,-0.1664,-0.1563,-0.1871,-0.1612,-0.1611,-0.1637,-0.1669,-0.1418,-0.1422,-0.1425,-0.1427,-0.1429,-0.164,-0.1626,-0.1651,-0.1656,-0.1691,-0.1704,-0.1695,-0.1762,-0.1805,-0.1876,-0.2069,-0.2021,-0.2006,-0.1534,-0.1414,-0.1254,-0.1377,-0.1341,-0.1357,-0.1376,-0.1375,-0.137,-0.1131,-0.1133,-0.1135,-0.1137,-0.1138,0,-0.154,-0.1531,-0.1522,-0.1523,-0.1496,-0.1574,-0.1615,-0.1568,-0.1559,-0.1631,-0.1682,-0.1519,-0.134,-0.1273,-0.0972,-0.0941,-0.0946,-0.091,-0.0934,-0.0971,-0.1004,-0.0988,-0.0639,-0.0638,-0.0637,-0.0636,0,0,-0.1486,-0.1439,-0.1425,-0.1325,-0.1329,-0.1267,-0.1269,-0.1224,-0.1212,-0.1142,-0.1105,-0.1221,-0.1259,-0.0962,-0.0888,-0.0722,-0.0845,-0.067,-0.1064,-0.1129,-0.1162,-0.1235,-0.1247,0,0,0,0,0]},{"header":{"parameterUnit":"m.s-1","parameterCategory":2,"la1":30.2991,"la2":30.254,"lo1":-89.0895,"lo2":-89.0444,"dy":0.0017,"dx":0.0017,"nx":28,"ny":28,"refTime":"2024-07-01T21:00:00:Z","depth":"2","parameterNumber":3,"parameterNumberName":"V-component_of_CURRENTS"},"data":[0,0,0,0,0,0,0,0,0,0,0,0,0,0,0,0,0,0,0,0,0,0,0,0,0,0,0,0,0,0,0,0,0,0,0,0,0,0,0,0,0,0,0,0,0,0,0,0,0,0,0,0,0,0,0,0,0,0,-0.0489,-0.0487,0,-0.0352,-0.035,-0.0348,-0.0261,-0.0261,-0.0261,-0.0261,0.0132,0.0141,0.0152,0,0,0,0,0,0,0,0,0,0,0,0,0,-0.057,-0.0569,-0.0489,-0.0487,-0.0486,-0.0352,-0.035,-0.0347,-0.0261,-0.0261,-0.0261,-0.0261,0.0128,0.014,0.0153,0,0,0,0,0,0,0,0,0,0,0,0,0,-0.0491,-0.0569,-0.0489,-0.0429,-0.0422,-0.0352,-0.035,-0.0347,-0.0261,-0.0261,-0.0261,-0.0261,0.0124,0.0139,0.0154,0.0242,0,0,0.0201,0.0208,0,0,0,0,0,0,0,0,-0.0496,-0.0488,-0.0439,-0.0433,-0.0426,-0.0326,-0.0235,-0.0138,-0.0262,-0.0319,-0.0261,-0.026,0.0,0.0026,0.0051,0.0261,0.0277,0.0202,0.0212,0.0218,0.0223,0,0,0,0,0,0,0,-0.0502,-0.0493,-0.0431,-0.0438,-0.0429,-0.0373,-0.0362,-0.0216,-0.0156,-0.0314,-0.0308,-0.0298,0.0006,0.0036,0.0062,0.0283,0.0202,0.0216,0.0225,0.0231,0.0634,0.0635,0,0,0,0,0,0,-0.0531,-0.0499,-0.0436,-0.0428,-0.0464,-0.0372,-0.036,-0.0356,-0.0163,-0.0136,-0.0299,-0.0295,0.0009,0.0044,0.0076,0.0224,0.0218,0.0233,0.0241,0.0632,0.0634,0.0636,0,0,0,0,0,0,-0.0533,-0.0527,-0.0441,-0.0462,-0.0447,-0.0372,-0.0368,-0.0353,-0.0318,-0.0155,-0.0122,-0.0278,0.0011,0.0055,0.0249,0.0239,0.024,0.0254,0.0631,0.0633,0.0635,0.0501,0,0,0,0,0,0,-0.0536,-0.0528,-0.0534,-0.0464,-0.0448,-0.0401,-0.0368,-0.0351,-0.0314,-0.0307,-0.0125,-0.009,0.0015,0.0226,0.0264,0.026,0.0265,0.0629,0.0632,0.0634,0.0503,0.0498,0.0494,0,0,0,0,0,-0.0539,-0.0546,-0.0535,-0.0528,-0.0459,-0.0401,-0.0387,-0.0329,-0.0313,-0.0296,-0.0143,-0.0095,0.0268,0.0242,0.0286,0.0285,0.0627,0.0631,0.0634,0.0506,0.0499,0.0494,0,0,0,0,0,0,-0.0579,-0.0537,-0.0523,-0.0516,-0.0466,-0.0388,-0.037,-0.0333,-0.0209,-0.019,-0.0038,0.0012,0.0161,0.0261,0.0226,0.041,0.0441,0.0453,0.0328,0.0323,0.0319,0.0283,0.0278,0,0,0,0,0,-0.0596,-0.0592,-0.0536,-0.0529,-0.0511,-0.0443,-0.0414,-0.0376,-0.0264,-0.0215,-0.0085,0.0064,0.0207,0.0296,0.0431,0.0562,0.0605,0.0581,0.0576,0.0571,0.0574,0.0642,0.0641,0.0647,0.0647,0.0647,0,0,-0.061,-0.0586,-0.0583,-0.0538,-0.0497,-0.0469,-0.0423,-0.0384,-0.0351,-0.0181,-0.0074,0.0062,0.0241,0.0373,0.0445,0.046,0.0587,0.0576,0.057,0.0576,0.0645,0.0644,0.0643,0.0649,0.0649,0.0648,0,0,-0.0631,-0.0616,-0.0618,-0.0584,-0.0534,-0.0489,-0.0482,-0.04,-0.0357,-0.0229,-0.0111,0.004,0.0246,0.037,0.0461,0.0523,0.0556,0.0537,0.0494,0.0558,0.0557,0.0556,0.0566,0.0568,0.0536,0.0536,0.0536,0,-0.0647,-0.0643,-0.0606,-0.0595,-0.0568,-0.0504,-0.0488,-0.0437,-0.0299,-0.0244,-0.0208,0.0096,0.0245,0.0414,0.043,0.0509,0.0524,0.0492,0.0545,0.0547,0.0548,0.056,0.0563,0.053,0.0531,0.0531,0.0532,0,-0.067,-0.066,-0.0655,-0.0625,-0.0591,-0.0565,-0.05,-0.0449,-0.0385,-0.0318,-0.0155,0.0048,0.0226,0.0278,0.0388,0.0475,0.0469,0.052,0.0541,0.0538,0.0552,0.0558,0.0521,0.0523,0.0525,0.0527,0,0,-0.0721,-0.0679,-0.0679,-0.0669,-0.0603,-0.0581,-0.0527,-0.0449,-0.0408,-0.0285,-0.0207,0.0031,0.0112,0.0222,0.0353,0.0423,0.0448,0.0462,0.0468,0.0436,0.053,0.0537,0.0544,0.0484,0.0485,0.0487,0.0516,0,-0.0744,-0.074,-0.0703,-0.0687,-0.0675,-0.0601,-0.0558,-0.0482,-0.0392,-0.0304,-0.014,-0.0004,0.0091,0.0182,0.0261,0.0423,0.0465,0.0433,0.0571,0.0574,0.0552,0.0554,0.0514,0.0538,0.0522,0.0523,0.0524,0,-0.078,-0.077,-0.0763,-0.0716,-0.0705,-0.0686,-0.0602,-0.0554,-0.0425,-0.035,-0.0214,-0.0091,0.0069,0.0131,0.0339,0.03,0.0397,0.0495,0.0499,0.0562,0.0594,0.0554,0.0551,0.0535,0.0534,0.0533,0.0532,0,-0.0842,-0.0811,-0.0809,-0.0795,-0.0733,-0.0714,-0.068,-0.0568,-0.0528,-0.0387,-0.0328,-0.0145,-0.0023,0.0104,0.0315,0.0316,0.0503,0.0538,0.0622,0.0621,0.065,0.0651,0.0651,0.0651,0.0651,0.0651,0.065,0,-0.0876,-0.0878,-0.0848,-0.0849,-0.0848,-0.0787,-0.0759,-0.0687,-0.0593,-0.0529,-0.0372,-0.0253,-0.0024,0.0125,0.0267,0.0456,0.0463,0.0611,0.0642,0.06,0.0596,0.0661,0.0662,0.0652,0.0651,0.0651,0.0651,0,-0.0934,-0.091,-0.0917,-0.0882,-0.0878,-0.0885,-0.0845,-0.0819,-0.0719,-0.0631,-0.0592,-0.0342,-0.0125,0.0065,0.032,0.0423,0.0589,0.065,0.0559,0.058,0.066,0.0654,0.0726,0.0727,0.0727,0.0728,0.0728,0,-0.0958,-0.0968,-0.0968,-0.0985,-0.0974,-0.0977,-0.0972,-0.0893,-0.0856,-0.0655,-0.0613,-0.0374,-0.016,0.0165,0.0388,0.0584,0.0619,0.0651,0.068,0.0651,0.0674,0.0667,0.066,0.0643,0.0642,0.0642,0.0642,0,-0.1006,-0.1012,-0.1022,-0.1061,-0.1078,-0.109,-0.1075,-0.1065,-0.0939,-0.0845,-0.0625,-0.0438,-0.0072,0.021,0.0455,0.0566,0.061,0.0654,0.0672,0.0634,0.0577,0.0598,0.0593,0.064,0.064,0.064,0.064,0.064,-0.1048,-0.1077,-0.1099,-0.1132,-0.1167,-0.1189,-0.119,-0.1137,-0.1074,-0.0874,-0.068,-0.0367,-0.0082,0.0312,0.0485,0.0641,0.0655,0.0687,0.0686,0.0686,0.0675,0.0624,0.069,0.069,0.0691,0.0691,0.0691,0,-0.1082,-0.1114,-0.1161,-0.1208,-0.1259,-0.1258,-0.1244,-0.1201,-0.111,-0.0857,-0.0645,-0.0322,-0.0014,0.0282,0.0543,0.0685,0.0671,0.0689,0.0653,0.0653,0.0654,0.0642,0.0647,0.0648,0.0648,0.0649,0,0,-0.1104,-0.1149,-0.117,-0.1267,-0.1313,-0.1346,-0.1334,-0.1237,-0.106,-0.08,-0.0551,-0.0295,0.0065,0.0219,0.0397,0.0554,0.056,0.0548,0.0564,0.0499,0.0499,0.063,0.0608,0,0,0,0,0]}],[{"header":{"parameterUnit":"m.s-1","parameterCategory":2,"la1":30.2991,"la2":30.254,"lo1":-89.0895,"lo2":-89.0444,"dy":0.0017,"dx":0.0017,"nx":28,"ny":28,"refTime":"2024-07-01T21:00:00:Z","depth":"4","parameterNumber":2,"parameterNumberName":"U-component_of_CURRENTS"},"data":[0,0,0,0,0,0,0,0,0,0,0,0,0,0,0,0,0,0,0,0,0,0,0,0,0,0,0,0,0,0,0,0,0,0,0,0,0,0,0,0,0,0,0,0,0,0,0,0,0,0,0,0,0,0,0,0,0,0,-0.1494,-0.1494,0,-0.1526,-0.1527,-0.1527,-0.1559,-0.156,-0.156,-0.1561,-0.1558,-0.1557,-0.1556,0,0,0,0,0,0,0,0,0,0,0,0,0,-0.143,-0.1431,-0.1493,-0.1494,-0.1495,-0.1526,-0.1527,-0.1527,-0.1559,-0.156,-0.1561,-0.1561,-0.1558,-0.1557,-0.1556,0,0,0,0,0,0,0,0,0,0,0,0,0,-0.1458,-0.1432,-0.1493,-0.1516,-0.1518,-0.1526,-0.1527,-0.1527,-0.1559,-0.156,-0.1561,-0.1562,-0.1558,-0.1557,-0.1556,-0.1533,0,0,-0.1553,-0.1553,0,0,0,0,0,0,0,0,-0.1457,-0.1461,-0.1512,-0.1514,-0.1517,-0.1541,-0.1503,-0.1528,-0.1559,-0.1542,-0.1561,-0.1562,-0.1549,-0.1549,-0.1551,-0.1533,-0.1533,-0.1553,-0.1553,-0.1552,-0.1552,0,0,0,0,0,0,0,-0.1455,-0.1459,-0.1505,-0.1512,-0.1516,-0.1514,-0.1519,-0.1508,-0.1538,-0.1543,-0.1546,-0.1552,-0.155,-0.1552,-0.1552,-0.1533,-0.1553,-0.1553,-0.1552,-0.1552,-0.1552,-0.1552,0,0,0,0,0,0,-0.1455,-0.1458,-0.1504,-0.1506,-0.149,-0.1515,-0.1521,-0.1531,-0.1539,-0.1542,-0.1551,-0.1554,-0.1554,-0.1553,-0.1552,-0.1572,-0.1552,-0.1552,-0.1551,-0.1551,-0.1552,-0.1552,0,0,0,0,0,0,-0.1453,-0.1459,-0.1503,-0.1483,-0.1489,-0.1516,-0.1527,-0.1531,-0.1558,-0.1546,-0.1548,-0.1577,-0.1554,-0.1553,-0.1549,-0.157,-0.1551,-0.155,-0.155,-0.1551,-0.1552,-0.1582,0,0,0,0,0,0,-0.1451,-0.1458,-0.1475,-0.1484,-0.149,-0.1513,-0.1526,-0.1531,-0.156,-0.1563,-0.1568,-0.1567,-0.1555,-0.155,-0.1548,-0.1569,-0.155,-0.155,-0.1551,-0.1552,-0.158,-0.1584,-0.1587,0,0,0,0,0,-0.1449,-0.1466,-0.1476,-0.1482,-0.151,-0.1514,-0.1517,-0.1537,-0.156,-0.1566,-0.1568,-0.1568,-0.1556,-0.1549,-0.1546,-0.1568,-0.1549,-0.1551,-0.1552,-0.1579,-0.1583,-0.1587,0,0,0,0,0,0,-0.145,-0.1472,-0.1483,-0.1507,-0.1513,-0.152,-0.1539,-0.155,-0.1559,-0.1576,-0.1564,-0.1562,-0.1564,-0.1561,-0.1554,-0.1572,-0.1557,-0.1558,-0.1579,-0.1583,-0.1586,-0.1566,-0.1549,0,0,0,0,0,-0.1457,-0.1477,-0.1488,-0.1508,-0.1518,-0.1533,-0.1544,-0.1559,-0.1564,-0.1572,-0.1567,-0.1571,-0.1563,-0.157,-0.1556,-0.1565,-0.1552,-0.1581,-0.1584,-0.1587,-0.1569,-0.1577,-0.1579,-0.1557,-0.1557,-0.1556,0,0,-0.1465,-0.1479,-0.1492,-0.151,-0.1525,-0.1531,-0.1543,-0.1569,-0.1575,-0.1567,-0.1578,-0.1573,-0.1564,-0.1567,-0.1571,-0.1573,-0.1588,-0.1589,-0.1591,-0.1571,-0.1579,-0.1581,-0.1583,-0.1557,-0.1557,-0.1557,0,0,-0.1472,-0.1504,-0.1516,-0.1523,-0.1548,-0.1553,-0.1565,-0.158,-0.1592,-0.1595,-0.1592,-0.1584,-0.1593,-0.1574,-0.157,-0.1581,-0.1594,-0.1612,-0.1623,-0.1632,-0.1634,-0.1635,-0.1624,-0.1625,-0.1627,-0.1627,-0.1627,0,-0.1482,-0.1503,-0.1518,-0.1526,-0.1548,-0.1564,-0.1583,-0.1582,-0.159,-0.1603,-0.1605,-0.1599,-0.1582,-0.1578,-0.1584,-0.1584,-0.1603,-0.1611,-0.1636,-0.1637,-0.1638,-0.1626,-0.1626,-0.1628,-0.1628,-0.1628,-0.1628,0,-0.1483,-0.1512,-0.1524,-0.1541,-0.1558,-0.1584,-0.1589,-0.1608,-0.1632,-0.1626,-0.1633,-0.16,-0.1603,-0.1604,-0.1595,-0.1605,-0.1621,-0.163,-0.1625,-0.1642,-0.1629,-0.1628,-0.1631,-0.163,-0.1629,-0.1629,0,0,-0.1471,-0.152,-0.1524,-0.1549,-0.1583,-0.1593,-0.1619,-0.164,-0.1669,-0.1651,-0.1678,-0.1632,-0.163,-0.1622,-0.1616,-0.1615,-0.1623,-0.1641,-0.1641,-0.1627,-0.1656,-0.1549,-0.1538,-0.167,-0.167,-0.167,-0.1646,0,-0.1474,-0.1502,-0.1531,-0.1567,-0.1589,-0.1633,-0.1653,-0.1673,-0.1696,-0.1714,-0.1679,-0.1682,-0.1635,-0.1657,-0.1641,-0.1628,-0.1624,-0.1628,-0.1643,-0.1642,-0.1543,-0.1533,-0.167,-0.1645,-0.1645,-0.1644,-0.1644,0,-0.1453,-0.1487,-0.1529,-0.1603,-0.1621,-0.1643,-0.1719,-0.1737,-0.176,-0.1784,-0.1777,-0.1762,-0.1722,-0.1704,-0.1652,-0.1677,-0.1665,-0.1646,-0.1646,-0.1528,-0.1532,-0.1624,-0.1642,-0.1642,-0.1643,-0.1643,-0.1643,0,-0.1416,-0.1483,-0.1528,-0.1548,-0.1621,-0.1667,-0.1711,-0.1757,-0.1777,-0.1825,-0.1846,-0.1814,-0.1797,-0.1768,-0.1692,-0.1708,-0.1649,-0.1666,-0.1546,-0.1539,-0.1632,-0.1631,-0.1642,-0.1642,-0.1642,-0.1642,-0.1642,0,-0.1389,-0.1424,-0.1518,-0.1535,-0.1598,-0.166,-0.1718,-0.1772,-0.1824,-0.1824,-0.1864,-0.1847,-0.1823,-0.1778,-0.1725,-0.1603,-0.1667,-0.1523,-0.1519,-0.1646,-0.1647,-0.1631,-0.1631,-0.1641,-0.1641,-0.1642,-0.1642,0,-0.1316,-0.138,-0.1434,-0.1539,-0.1574,-0.1612,-0.1702,-0.1723,-0.1807,-0.1817,-0.1831,-0.1866,-0.1805,-0.1753,-0.1702,-0.162,-0.1538,-0.1493,-0.1612,-0.1619,-0.1421,-0.1422,-0.1356,-0.1351,-0.1348,-0.1345,-0.1343,0,-0.1274,-0.1297,-0.1414,-0.1439,-0.1487,-0.1555,-0.1586,-0.1691,-0.1701,-0.1788,-0.1766,-0.1773,-0.1761,-0.1584,-0.1572,-0.1462,-0.1441,-0.1411,-0.1412,-0.1385,-0.1389,-0.1396,-0.1401,-0.1337,-0.1336,-0.1335,-0.1334,0,-0.12,-0.1255,-0.1296,-0.1349,-0.1394,-0.1432,-0.1487,-0.1489,-0.1584,-0.1677,-0.1649,-0.1619,-0.156,-0.1497,-0.1426,-0.135,-0.1432,-0.1374,-0.1381,-0.1382,-0.1362,-0.1371,-0.138,-0.1322,-0.1324,-0.1325,-0.1326,0,-0.1143,-0.1153,-0.1208,-0.1236,-0.1284,-0.128,-0.1337,-0.1346,-0.1381,-0.1488,-0.1472,-0.1487,-0.1539,-0.1438,-0.1364,-0.1283,-0.1261,-0.1226,-0.124,-0.1254,-0.1226,-0.1187,-0.1068,0,0,0,0,0,-0.1084,-0.1072,-0.1085,-0.1105,-0.1139,-0.1163,-0.1245,-0.1301,-0.1401,-0.1336,-0.1402,-0.1341,-0.1273,-0.1295,-0.1179,-0.1293,-0.1251,-0.1156,-0.1216,-0.1255,-0.1269,-0.1243,0,0,0,0,0,0,-0.1039,-0.1054,-0.1043,-0.0973,-0.0953,-0.0975,-0.1023,-0.1102,-0.1081,-0.1195,-0.1158,-0.1251,-0.1189,-0.1288,-0.1143,-0.1142,-0.1152,-0.1175,-0.1172,-0.1247,-0.1259,-0.1271,-0.1249,0,0,0,0,0]},{"header":{"parameterUnit":"m.s-1","parameterCategory":2,"la1":30.2991,"la2":30.254,"lo1":-89.0895,"lo2":-89.0444,"dy":0.0017,"dx":0.0017,"nx":28,"ny":28,"refTime":"2024-07-01T21:00:00:Z","depth":"4","parameterNumber":3,"parameterNumberName":"V-component_of_CURRENTS"},"data":[0,0,0,0,0,0,0,0,0,0,0,0,0,0,0,0,0,0,0,0,0,0,0,0,0,0,0,0,0,0,0,0,0,0,0,0,0,0,0,0,0,0,0,0,0,0,0,0,0,0,0,0,0,0,0,0,0,0,-0.0369,-0.0369,0,-0.033,-0.033,-0.0329,-0.0303,-0.0303,-0.0303,-0.0303,-0.0287,-0.0287,-0.0287,0,0,0,0,0,0,0,0,0,0,0,0,0,-0.0382,-0.0382,-0.0369,-0.0369,-0.0368,-0.033,-0.033,-0.0329,-0.0303,-0.0303,-0.0303,-0.0303,-0.0287,-0.0287,-0.0287,0,0,0,0,0,0,0,0,0,0,0,0,0,-0.0363,-0.0382,-0.0369,-0.0351,-0.0349,-0.0331,-0.033,-0.0329,-0.0303,-0.0303,-0.0303,-0.0303,-0.0287,-0.0287,-0.0287,-0.0288,0,0,-0.0285,-0.0285,0,0,0,0,0,0,0,0,-0.0364,-0.0362,-0.0354,-0.0352,-0.035,-0.0322,-0.0329,-0.0317,-0.0303,-0.032,-0.0303,-0.0303,-0.0301,-0.03,-0.0292,-0.0288,-0.0287,-0.0285,-0.0285,-0.0285,-0.0285,0,0,0,0,0,0,0,-0.0365,-0.0364,-0.0354,-0.0354,-0.0351,-0.0331,-0.0329,-0.0326,-0.0313,-0.0319,-0.0317,-0.0313,-0.03,-0.0293,-0.0292,-0.0287,-0.0285,-0.0285,-0.0285,-0.0285,-0.0324,-0.0325,0,0,0,0,0,0,-0.0373,-0.0365,-0.0355,-0.0352,-0.0357,-0.0332,-0.0329,-0.0331,-0.0312,-0.0309,-0.0314,-0.0312,-0.0293,-0.0292,-0.0291,-0.0319,-0.0285,-0.0284,-0.0284,-0.0322,-0.0324,-0.0325,0,0,0,0,0,0,-0.0374,-0.0373,-0.0356,-0.0358,-0.0354,-0.0332,-0.0334,-0.033,-0.0326,-0.0308,-0.0305,-0.0314,-0.0293,-0.0292,-0.0307,-0.0317,-0.0284,-0.0284,-0.0321,-0.0323,-0.0325,-0.0358,0,0,0,0,0,0,-0.0374,-0.0374,-0.0382,-0.0359,-0.0355,-0.0352,-0.0334,-0.033,-0.0324,-0.0322,-0.0307,-0.0305,-0.0293,-0.0308,-0.0306,-0.0316,-0.0284,-0.0319,-0.0322,-0.0324,-0.0355,-0.0361,-0.0365,0,0,0,0,0,-0.0375,-0.0385,-0.0383,-0.0382,-0.0366,-0.0353,-0.0349,-0.0332,-0.0324,-0.0326,-0.0327,-0.0306,-0.0322,-0.0309,-0.0307,-0.0316,-0.0318,-0.0321,-0.0324,-0.0353,-0.036,-0.0365,0,0,0,0,0,0,-0.0393,-0.0382,-0.038,-0.0386,-0.0375,-0.0349,-0.0348,-0.0337,-0.0336,-0.0338,-0.0322,-0.0321,-0.0343,-0.0329,-0.0314,-0.0338,-0.0317,-0.0319,-0.0339,-0.0346,-0.0351,-0.033,-0.0283,0,0,0,0,0,-0.0403,-0.041,-0.0393,-0.04,-0.0395,-0.0374,-0.0368,-0.0356,-0.0349,-0.0348,-0.034,-0.034,-0.0353,-0.0348,-0.0357,-0.0362,-0.0315,-0.0369,-0.0374,-0.0379,-0.0363,-0.0325,-0.0324,-0.0335,-0.0335,-0.0335,0,0,-0.0413,-0.0408,-0.0413,-0.0405,-0.0394,-0.0391,-0.037,-0.0363,-0.0366,-0.0348,-0.0357,-0.0364,-0.0364,-0.0379,-0.0385,-0.0365,-0.0348,-0.0382,-0.0386,-0.0367,-0.0327,-0.0326,-0.0324,-0.0337,-0.0337,-0.0336,0,0,-0.0433,-0.0431,-0.0442,-0.0435,-0.0423,-0.0408,-0.041,-0.039,-0.0388,-0.0399,-0.0396,-0.0412,-0.0413,-0.0417,-0.0419,-0.0458,-0.0388,-0.0458,-0.045,-0.0414,-0.0412,-0.041,-0.0327,-0.0317,-0.0446,-0.0446,-0.0447,0,-0.0447,-0.0456,-0.0443,-0.0447,-0.0441,-0.0419,-0.0422,-0.0418,-0.041,-0.04,-0.041,-0.0418,-0.0434,-0.0439,-0.0459,-0.0468,-0.041,-0.0425,-0.0418,-0.0414,-0.0411,-0.0327,-0.0315,-0.0448,-0.0448,-0.0448,-0.0448,0,-0.047,-0.0477,-0.048,-0.048,-0.0472,-0.0472,-0.0458,-0.045,-0.0446,-0.0435,-0.0443,-0.0464,-0.0453,-0.0477,-0.0482,-0.047,-0.0421,-0.0437,-0.0394,-0.0411,-0.0322,-0.0309,-0.0451,-0.0451,-0.045,-0.0449,0,0,-0.0507,-0.0499,-0.0504,-0.0507,-0.0488,-0.0487,-0.0479,-0.046,-0.0443,-0.0452,-0.0423,-0.0479,-0.0463,-0.0466,-0.0472,-0.0453,-0.0399,-0.0428,-0.0425,-0.033,-0.0262,-0.0256,-0.024,-0.0399,-0.0398,-0.0397,-0.02,0,-0.0531,-0.055,-0.0532,-0.0546,-0.055,-0.0514,-0.051,-0.0489,-0.0462,-0.0429,-0.0434,-0.0431,-0.0465,-0.0459,-0.0445,-0.041,-0.0369,-0.0447,-0.0272,-0.0266,-0.0247,-0.0228,-0.0393,-0.019,-0.0187,-0.0185,-0.0183,0,-0.0563,-0.0571,-0.0588,-0.0575,-0.0572,-0.0577,-0.0536,-0.0528,-0.0466,-0.044,-0.0404,-0.0382,-0.0355,-0.0392,-0.0308,-0.0343,-0.0301,-0.0277,-0.0269,-0.0239,-0.0237,-0.0176,-0.0159,-0.0161,-0.0163,-0.0165,-0.0166,0,-0.0605,-0.061,-0.0627,-0.0626,-0.0607,-0.0604,-0.0593,-0.0538,-0.0529,-0.0436,-0.0407,-0.0337,-0.0319,-0.0254,-0.0203,-0.0236,-0.0086,-0.0127,-0.0071,-0.0067,-0.0115,-0.012,-0.0061,-0.0061,-0.0061,-0.0062,-0.0062,0,-0.0632,-0.0652,-0.0657,-0.0668,-0.0687,-0.0656,-0.0653,-0.0609,-0.0552,-0.0533,-0.0433,-0.0401,-0.0289,-0.0192,-0.0141,-0.0044,-0.0028,-0.0045,-0.002,-0.0132,-0.0142,-0.0103,-0.0111,-0.0054,-0.0056,-0.0058,-0.0059,0,-0.0669,-0.0671,-0.07,-0.0703,-0.0709,-0.0728,-0.0721,-0.0707,-0.0646,-0.0604,-0.0577,-0.0431,-0.0289,-0.0154,-0.0015,0.0018,0.0116,0.0141,0.0073,0.0087,0.0107,0.0095,0.0245,0.0247,0.0249,0.025,0.0251,0,-0.0684,-0.0705,-0.0742,-0.0769,-0.0777,-0.08,-0.0808,-0.0763,-0.0739,-0.0645,-0.0623,-0.0458,-0.0352,-0.0101,0.0018,0.0214,0.0186,0.0271,0.0127,0.0128,0.0137,0.0123,0.0109,0.0253,0.0254,0.0254,0.0254,0,-0.0714,-0.0738,-0.0763,-0.082,-0.0852,-0.0879,-0.0885,-0.0871,-0.0805,-0.0763,-0.0635,-0.0487,-0.0302,-0.0101,0.0084,0.0179,0.0239,0.0286,0.0281,0.0147,0.0139,0.0144,0.0129,0.026,0.0259,0.0258,0.0258,0,-0.0742,-0.0774,-0.0816,-0.0856,-0.0911,-0.0935,-0.093,-0.0886,-0.0854,-0.0732,-0.0697,-0.0492,-0.0355,-0.012,0.002,0.0171,0.0155,0.0152,0.0153,0.0149,0.0034,0.0005,0.0128,0,0,0,0,0,-0.0757,-0.0789,-0.0842,-0.089,-0.0949,-0.097,-0.0966,-0.0943,-0.088,-0.0795,-0.0739,-0.0565,-0.0313,-0.0192,-0.0041,0.0006,0.0164,0.018,0.0157,0.0289,0.0283,0.016,0,0,0,0,0,0,-0.0768,-0.0823,-0.0842,-0.0912,-0.0948,-0.1001,-0.0996,-0.0953,-0.0881,-0.0799,-0.0646,-0.0566,-0.0301,-0.0397,-0.0049,-0.0003,-0.0009,0.031,0.0311,0.0292,0.0287,0.0282,0.0154,0,0,0,0,0]}]]